Time,TemperatureF,DewpointF,PressureIn,WindDirection,WindDirectionDegrees,WindSpeedMPH,WindSpeedGustMPH,Humidity,HourlyPrecipIn,Conditions,Clouds,dailyrainin,SoftwareType,DateUTC
2013-04-27 00:00:00,47.0,47.0,30.42,SE,130,3.0,5.0,99,-99.99,,,-99.99,,2013-04-27 04:00:00,
2013-04-27 00:22:00,47.0,47.0,30.42,SE,130,3.0,5.0,99,-99.99,,,-99.99,,2013-04-27 04:22:00,
2013-04-27 00:32:00,47.0,47.0,30.42,SE,130,3.0,5.0,99,-99.99,,,-99.99,,2013-04-27 04:32:00,
2013-04-27 00:42:00,47.0,47.0,30.42,SE,130,3.0,5.0,99,-99.99,,,-99.99,,2013-04-27 04:42:00,
2013-04-27 00:52:00,47.0,47.0,30.42,SE,130,3.0,5.0,99,-99.99,,,-99.99,,2013-04-27 04:52:00,
2013-04-27 01:00:00,47.0,45.0,30.42,ESE,120,5.0,5.0,93,-99.99,,,-99.99,,2013-04-27 05:00:00,
2013-04-27 01:22:00,47.0,45.0,30.42,ESE,120,5.0,5.0,93,-99.99,,,-99.99,,2013-04-27 05:22:00,
2013-04-27 01:31:00,47.0,45.0,30.42,ESE,120,5.0,5.0,93,-99.99,,,-99.99,,2013-04-27 05:31:00,
2013-04-27 01:42:00,47.0,45.0,30.42,ESE,120,5.0,5.0,93,-99.99,,,-99.99,,2013-04-27 05:42:00,
2013-04-27 01:51:00,47.0,45.0,30.42,ESE,120,5.0,5.0,93,-99.99,,,-99.99,,2013-04-27 05:51:00,
2013-04-27 02:00:00,46.0,45.0,30.41,ENE,70,7.0,7.0,94,-99.99,,,-99.99,,2013-04-27 06:00:00,
2013-04-27 02:21:00,46.0,45.0,30.41,ENE,70,7.0,7.0,94,-99.99,,,-99.99,,2013-04-27 06:21:00,
2013-04-27 02:32:00,46.0,45.0,30.41,ENE,70,7.0,7.0,94,-99.99,,,-99.99,,2013-04-27 06:32:00,
2013-04-27 02:41:00,46.0,45.0,30.41,ENE,70,7.0,7.0,94,-99.99,,,-99.99,,2013-04-27 06:41:00,
2013-04-27 02:51:00,46.0,45.0,30.41,ENE,70,7.0,7.0,94,-99.99,,,-99.99,,2013-04-27 06:51:00,
2013-04-27 03:00:00,46.0,45.0,30.41,ENE,60,3.0,3.0,96,-99.99,,,-99.99,,2013-04-27 07:00:00,
2013-04-27 03:21:00,46.0,45.0,30.41,ENE,60,3.0,3.0,96,-99.99,,,-99.99,,2013-04-27 07:21:00,
2013-04-27 03:31:00,46.0,45.0,30.41,ENE,60,3.0,3.0,96,-99.99,,,-99.99,,2013-04-27 07:31:00,
2013-04-27 03:41:00,46.0,45.0,30.41,ENE,60,3.0,3.0,96,-99.99,,,-99.99,,2013-04-27 07:41:00,
2013-04-27 03:52:00,46.0,45.0,30.41,ENE,60,3.0,3.0,96,-99.99,,,-99.99,,2013-04-27 07:52:00,
2013-04-27 04:00:00,45.0,44.0,30.41,North,10,2.0,3.0,96,-99.99,,,-99.99,,2013-04-27 08:00:00,
2013-04-27 04:21:00,45.0,44.0,30.41,North,10,2.0,3.0,96,-99.99,,,-99.99,,2013-04-27 08:21:00,
2013-04-27 04:32:00,45.0,44.0,30.41,North,10,2.0,3.0,96,-99.99,,,-99.99,,2013-04-27 08:32:00,
2013-04-27 04:41:00,45.0,44.0,30.41,North,10,2.0,3.0,96,-99.99,,,-99.99,,2013-04-27 08:41:00,
2013-04-27 04:51:00,45.0,44.0,30.41,North,10,2.0,3.0,96,-99.99,,,-99.99,,2013-04-27 08:51:00,
2013-04-27 05:00:00,45.0,45.0,30.40,NE,40,6.0,6.0,97,-99.99,,,-99.99,,2013-04-27 09:00:00,
2013-04-27 05:21:00,45.0,45.0,30.40,NE,40,6.0,6.0,97,-99.99,,,-99.99,,2013-04-27 09:21:00,
2013-04-27 05:33:00,45.0,45.0,30.40,NE,40,6.0,6.0,97,-99.99,,,-99.99,,2013-04-27 09:33:00,
2013-04-27 05:42:00,45.0,45.0,30.40,NE,40,6.0,6.0,97,-99.99,,,-99.99,,2013-04-27 09:42:00,
2013-04-27 05:53:00,45.0,45.0,30.40,NE,40,6.0,6.0,97,-99.99,,,-99.99,,2013-04-27 09:53:00,
2013-04-27 06:00:00,46.0,45.0,30.40,ENE,60,6.0,6.0,95,-99.99,,,-99.99,,2013-04-27 10:00:00,
2013-04-27 06:22:00,46.0,45.0,30.40,ENE,60,6.0,6.0,95,-99.99,,,-99.99,,2013-04-27 10:22:00,
2013-04-27 06:32:00,46.0,45.0,30.40,ENE,60,6.0,6.0,95,-99.99,,,-99.99,,2013-04-27 10:32:00,
2013-04-27 06:42:00,46.0,45.0,30.40,ENE,60,6.0,6.0,95,-99.99,,,-99.99,,2013-04-27 10:42:00,
2013-04-27 06:52:00,46.0,45.0,30.40,ENE,60,6.0,6.0,95,-99.99,,,-99.99,,2013-04-27 10:52:00,
2013-04-27 07:00:00,46.0,44.0,30.40,ENE,70,6.0,7.0,90,-99.99,,,-99.99,,2013-04-27 11:00:00,
2013-04-27 07:21:00,46.0,44.0,30.40,ENE,70,6.0,7.0,90,-99.99,,,-99.99,,2013-04-27 11:21:00,
2013-04-27 07:31:00,46.0,44.0,30.40,ENE,70,6.0,7.0,90,-99.99,,,-99.99,,2013-04-27 11:31:00,
2013-04-27 07:41:00,46.0,44.0,30.40,ENE,70,6.0,7.0,90,-99.99,,,-99.99,,2013-04-27 11:41:00,
2013-04-27 07:51:00,46.0,44.0,30.40,ENE,70,6.0,7.0,90,-99.99,,,-99.99,,2013-04-27 11:51:00,
2013-04-27 08:00:00,47.0,42.0,30.41,East,90,7.0,8.0,81,-99.99,,,-99.99,,2013-04-27 12:00:00,
2013-04-27 08:21:00,47.0,42.0,30.41,East,90,7.0,8.0,81,-99.99,,,-99.99,,2013-04-27 12:21:00,
2013-04-27 08:32:00,47.0,42.0,30.41,East,90,7.0,8.0,81,-99.99,,,-99.99,,2013-04-27 12:32:00,
2013-04-27 08:42:00,47.0,42.0,30.41,East,90,7.0,8.0,81,-99.99,,,-99.99,,2013-04-27 12:42:00,
2013-04-27 08:51:00,47.0,42.0,30.41,East,90,7.0,8.0,81,-99.99,,,-99.99,,2013-04-27 12:51:00,
2013-04-27 09:00:00,48.0,40.0,30.42,East,80,7.0,8.0,74,-99.99,,,-99.99,,2013-04-27 13:00:00,
2013-04-27 09:21:00,48.0,40.0,30.42,East,80,7.0,8.0,74,-99.99,,,-99.99,,2013-04-27 13:21:00,
2013-04-27 09:32:00,48.0,40.0,30.42,East,80,7.0,8.0,74,-99.99,,,-99.99,,2013-04-27 13:32:00,
2013-04-27 09:41:00,48.0,40.0,30.42,East,80,7.0,8.0,74,-99.99,,,-99.99,,2013-04-27 13:41:00,
2013-04-27 09:52:00,48.0,40.0,30.42,East,80,7.0,8.0,74,-99.99,,,-99.99,,2013-04-27 13:52:00,
2013-04-27 10:00:00,49.0,42.0,30.42,ENE,60,3.0,3.0,76,-99.99,,,-99.99,,2013-04-27 14:00:00,
2013-04-27 10:21:00,49.0,42.0,30.42,ENE,60,3.0,3.0,76,-99.99,,,-99.99,,2013-04-27 14:21:00,
2013-04-27 10:31:00,49.0,42.0,30.42,ENE,60,3.0,3.0,76,-99.99,,,-99.99,,2013-04-27 14:31:00,
2013-04-27 10:41:00,49.0,42.0,30.42,ENE,60,3.0,3.0,76,-99.99,,,-99.99,,2013-04-27 14:41:00,
2013-04-27 10:52:00,49.0,42.0,30.42,ENE,60,3.0,3.0,76,-99.99,,,-99.99,,2013-04-27 14:52:00,
2013-04-27 11:00:00,49.0,41.0,30.43,ESE,110,2.0,2.0,74,-99.99,,,-99.99,,2013-04-27 15:00:00,
2013-04-27 11:21:00,49.0,41.0,30.43,ESE,110,2.0,2.0,74,-99.99,,,-99.99,,2013-04-27 15:21:00,
2013-04-27 11:33:00,49.0,41.0,30.43,ESE,110,2.0,2.0,74,-99.99,,,-99.99,,2013-04-27 15:33:00,
2013-04-27 11:42:00,49.0,41.0,30.43,ESE,110,2.0,2.0,74,-99.99,,,-99.99,,2013-04-27 15:42:00,
2013-04-27 11:52:00,49.0,41.0,30.43,ESE,110,2.0,2.0,74,-99.99,,,-99.99,,2013-04-27 15:52:00,
2013-04-27 12:00:00,48.0,39.0,30.42,ESE,120,5.0,6.0,70,-99.99,,,-99.99,,2013-04-27 16:00:00,
2013-04-27 12:22:00,48.0,39.0,30.42,ESE,120,5.0,6.0,70,-99.99,,,-99.99,,2013-04-27 16:22:00,
2013-04-27 12:32:00,48.0,39.0,30.42,ESE,120,5.0,6.0,70,-99.99,,,-99.99,,2013-04-27 16:32:00,
2013-04-27 12:42:00,48.0,39.0,30.42,ESE,120,5.0,6.0,70,-99.99,,,-99.99,,2013-04-27 16:42:00,
2013-04-27 12:52:00,48.0,39.0,30.42,ESE,120,5.0,6.0,70,-99.99,,,-99.99,,2013-04-27 16:52:00,
2013-04-27 13:00:00,48.0,38.0,30.41,SE,140,7.0,7.0,66,-99.99,,,-99.99,,2013-04-27 17:00:00,
2013-04-27 13:22:00,48.0,38.0,30.41,SE,140,7.0,7.0,66,-99.99,,,-99.99,,2013-04-27 17:22:00,
2013-04-27 13:31:00,48.0,38.0,30.41,SE,140,7.0,7.0,66,-99.99,,,-99.99,,2013-04-27 17:31:00,
2013-04-27 13:42:00,48.0,38.0,30.41,SE,140,7.0,7.0,66,-99.99,,,-99.99,,2013-04-27 17:42:00,
2013-04-27 13:52:00,48.0,38.0,30.41,SE,140,7.0,7.0,66,-99.99,,,-99.99,,2013-04-27 17:52:00,
2013-04-27 14:00:00,49.0,38.0,30.40,SE,130,7.0,8.0,67,-99.99,,,-99.99,,2013-04-27 18:00:00,
2013-04-27 14:21:00,49.0,38.0,30.40,SE,130,7.0,8.0,67,-99.99,,,-99.99,,2013-04-27 18:21:00,
2013-04-27 14:31:00,49.0,38.0,30.40,SE,130,7.0,8.0,67,-99.99,,,-99.99,,2013-04-27 18:31:00,
2013-04-27 14:41:00,49.0,38.0,30.40,SE,130,7.0,8.0,67,-99.99,,,-99.99,,2013-04-27 18:41:00,
2013-04-27 14:51:00,49.0,38.0,30.40,SE,130,7.0,8.0,67,-99.99,,,-99.99,,2013-04-27 18:51:00,
2013-04-27 15:00:00,49.0,36.0,30.38,SSE,150,8.0,8.0,62,-99.99,,,-99.99,,2013-04-27 19:00:00,
2013-04-27 15:21:00,49.0,36.0,30.38,SSE,150,8.0,8.0,62,-99.99,,,-99.99,,2013-04-27 19:21:00,
2013-04-27 15:31:00,49.0,36.0,30.38,SSE,150,8.0,8.0,62,-99.99,,,-99.99,,2013-04-27 19:31:00,
2013-04-27 15:41:00,49.0,36.0,30.38,SSE,150,8.0,8.0,62,-99.99,,,-99.99,,2013-04-27 19:41:00,
2013-04-27 15:52:00,49.0,36.0,30.38,SSE,150,8.0,8.0,62,-99.99,,,-99.99,,2013-04-27 19:52:00,
2013-04-27 16:00:00,49.0,36.0,30.37,SSE,160,9.0,10.0,61,-99.99,,,-99.99,,2013-04-27 20:00:00,
2013-04-27 16:21:00,49.0,36.0,30.37,SSE,160,9.0,10.0,61,-99.99,,,-99.99,,2013-04-27 20:21:00,
2013-04-27 16:31:00,49.0,36.0,30.37,SSE,160,9.0,10.0,61,-99.99,,,-99.99,,2013-04-27 20:31:00,
2013-04-27 16:41:00,49.0,36.0,30.37,SSE,160,9.0,10.0,61,-99.99,,,-99.99,,2013-04-27 20:41:00,
2013-04-27 16:52:00,49.0,36.0,30.37,SSE,160,9.0,10.0,61,-99.99,,,-99.99,,2013-04-27 20:52:00,
2013-04-27 17:00:00,49.0,36.0,30.35,SSE,160,14.0,15.0,60,-99.99,,,-99.99,,2013-04-27 21:00:00,
2013-04-27 17:21:00,49.0,36.0,30.35,SSE,160,14.0,15.0,60,-99.99,,,-99.99,,2013-04-27 21:21:00,
2013-04-27 17:32:00,49.0,36.0,30.35,SSE,160,14.0,15.0,60,-99.99,,,-99.99,,2013-04-27 21:32:00,
2013-04-27 17:42:00,49.0,36.0,30.35,SSE,160,14.0,15.0,60,-99.99,,,-99.99,,2013-04-27 21:42:00,
2013-04-27 17:53:00,49.0,36.0,30.35,SSE,160,14.0,15.0,60,-99.99,,,-99.99,,2013-04-27 21:53:00,
2013-04-27 18:00:00,49.0,38.0,30.35,SSE,160,11.0,11.0,65,-99.99,,,-99.99,,2013-04-27 22:00:00,
2013-04-27 18:22:00,49.0,38.0,30.35,SSE,160,11.0,11.0,65,-99.99,,,-99.99,,2013-04-27 22:22:00,
2013-04-27 18:32:00,49.0,38.0,30.35,SSE,160,11.0,11.0,65,-99.99,,,-99.99,,2013-04-27 22:32:00,
2013-04-27 18:42:00,49.0,38.0,30.35,SSE,160,11.0,11.0,65,-99.99,,,-99.99,,2013-04-27 22:42:00,
2013-04-27 18:52:00,49.0,38.0,30.35,SSE,160,11.0,11.0,65,-99.99,,,-99.99,,2013-04-27 22:52:00,
2013-04-27 19:00:00,49.0,38.0,30.35,SSE,150,9.0,9.0,66,-99.99,,,-99.99,,2013-04-27 23:00:00,
2013-04-27 19:22:00,49.0,38.0,30.35,SSE,150,9.0,9.0,66,-99.99,,,-99.99,,2013-04-27 23:22:00,
2013-04-27 19:32:00,49.0,38.0,30.35,SSE,150,9.0,9.0,66,-99.99,,,-99.99,,2013-04-27 23:32:00,
2013-04-27 19:42:00,49.0,38.0,30.35,SSE,150,9.0,9.0,66,-99.99,,,-99.99,,2013-04-27 23:42:00,
2013-04-27 19:52:00,49.0,38.0,30.35,SSE,150,9.0,9.0,66,-99.99,,,-99.99,,2013-04-27 23:52:00,
2013-04-27 20:00:00,48.0,41.0,30.34,SSE,150,10.0,10.0,75,-99.99,,,-99.99,,2013-04-28 00:00:00,
2013-04-27 20:21:00,48.0,41.0,30.34,SSE,150,10.0,10.0,75,-99.99,,,-99.99,,2013-04-28 00:21:00,
2013-04-27 20:31:00,48.0,41.0,30.34,SSE,150,10.0,10.0,75,-99.99,,,-99.99,,2013-04-28 00:31:00,
2013-04-27 20:42:00,48.0,41.0,30.34,SSE,150,10.0,10.0,75,-99.99,,,-99.99,,2013-04-28 00:42:00,
2013-04-27 20:51:00,48.0,41.0,30.34,SSE,150,10.0,10.0,75,-99.99,,,-99.99,,2013-04-28 00:51:00,
2013-04-27 21:00:00,48.0,41.0,30.35,South,170,9.0,9.0,77,-99.99,,,-99.99,,2013-04-28 01:00:00,
2013-04-27 21:21:00,48.0,41.0,30.35,South,170,9.0,9.0,77,-99.99,,,-99.99,,2013-04-28 01:21:00,
2013-04-27 21:31:00,48.0,41.0,30.35,South,170,9.0,9.0,77,-99.99,,,-99.99,,2013-04-28 01:31:00,
2013-04-27 21:41:00,48.0,41.0,30.35,South,170,9.0,9.0,77,-99.99,,,-99.99,,2013-04-28 01:41:00,
2013-04-27 21:52:00,48.0,41.0,30.35,South,170,9.0,9.0,77,-99.99,,,-99.99,,2013-04-28 01:52:00,
2013-04-27 22:00:00,48.0,41.0,30.35,South,180,9.0,10.0,77,-99.99,,,-99.99,,2013-04-28 02:00:00,
2013-04-27 22:21:00,48.0,41.0,30.35,South,180,9.0,10.0,77,-99.99,,,-99.99,,2013-04-28 02:21:00,
2013-04-27 22:31:00,48.0,41.0,30.35,South,180,9.0,10.0,77,-99.99,,,-99.99,,2013-04-28 02:31:00,
2013-04-27 22:41:00,48.0,41.0,30.35,South,180,9.0,10.0,77,-99.99,,,-99.99,,2013-04-28 02:41:00,
2013-04-27 22:52:00,48.0,41.0,30.35,South,180,9.0,10.0,77,-99.99,,,-99.99,,2013-04-28 02:52:00,
2013-04-27 23:00:00,48.0,43.0,30.36,South,190,7.0,8.0,81,-99.99,,,-99.99,,2013-04-28 03:00:00,
2013-04-27 23:21:00,48.0,43.0,30.36,South,190,7.0,8.0,81,-99.99,,,-99.99,,2013-04-28 03:21:00,
2013-04-27 23:32:00,48.0,43.0,30.36,South,190,7.0,8.0,81,-99.99,,,-99.99,,2013-04-28 03:32:00,
2013-04-27 23:42:00,48.0,43.0,30.36,South,190,7.0,8.0,81,-99.99,,,-99.99,,2013-04-28 03:42:00,
2013-04-27 23:53:00,48.0,43.0,30.36,South,190,7.0,8.0,81,-99.99,,,-99.99,,2013-04-28 03:53:00,